Regional Weather Roundup
Issued by NWS

Home | Current Version | Previous Version | Graphics & Text | Print | Product List | Glossary On
Versions: 1 2 3 4 5 6 7 8 9 10 11 12 13 14 15 16 17 18 19 20 21 22 23 24 25 26 27 28 29 30 31 32 33 34 35 36 37 38 39 40 41 42 43 44 45 46 47 48 49 50
000
ASUS45 KCYS 250910
RWRWY

WYOMING REGIONAL WEATHER ROUNDUP
NATIONAL WEATHER SERVICE CHEYENNE WY
200 AM MST SUN JAN 25 2015

NOTE:  "FAIR" INDICATES FEW OR NO CLOUDS BELOW 12,000 FEET
WITH NO SIGNIFICANT WEATHER AND/OR OBSTRUCTIONS TO VISIBILITY.

WYZ001-251000-
YELLOWSTONE NATIONAL PARK

CITY           SKY/WX    TMP DP  RH WIND       PRES   REMARKS
LK YELLOWSTONE   N/A     23  21  92 CALM      30.35S
W YELLOWSTONE  NOT AVBL

$$
WYZ002>013-054>058-071-098>099-251000-
NORTHERN WYOMING

CITY           SKY/WX    TMP DP  RH WIND       PRES   REMARKS
JACKSON        CLOUDY    25  23  93 N3        30.37S
CODY           FAIR      46  27  46 W21       30.13F
GREYBULL       CLOUDY    20  19  96 CALM      30.17F
WORLAND        MOCLDY    14  11  87 CALM      30.16F
SHERIDAN       FAIR      28  24  85 CALM      30.11R
BUFFALO        FAIR      35  29  78 E5        30.11S WCI  31
GILLETTE       FAIR      32  26  78 W12       30.10R WCI  23
HULETT           N/A    N/A N/A N/A MISG        N/A
NEWCASTLE      FAIR      32  23  69 NW12      30.08S WCI  23

$$
WYZ014>020-022>026-101>103-251000-
CENTRAL WYOMING

CITY           SKY/WX    TMP DP  RH WIND       PRES   REMARKS
BIG PINEY      FAIR      18  16  92 W6        30.32S WCI  10
PINEDALE       FAIR      30  27  86 W12       30.31S WCI  21
DUBOIS         PTSUNNY   36  28  75 NW17G29   30.25S WCI  25
LANDER         FAIR      30  21  69 S3        30.17F
RIVERTON       FAIR      31  23  72 W9        30.18S WCI  23
CASPER         FAIR      29  24  82 SW14      30.15S WCI  18
DOUGLAS        FAIR      28  26  92 NW8       30.14R WCI  20

$$
WYZ021-027>030-104>119-251000-
SOUTHERN WYOMING

CITY           SKY/WX    TMP DP  RH WIND       PRES   REMARKS
EVANSTON       CLOUDY    30  27  88 SW14      30.41R WCI  19
KEMMERER       CLOUDY    32  30  93 CALM      30.40R
FORT BRIDGER   FAIR      32  31  95 W16G28    30.40R WCI  21
ROCK SPRINGS   FAIR      32  26  78 W30G37    30.32R WCI  18
DIXON          CLOUDY    28  22  79 CALM      30.36R
RAWLINS        FAIR      28  24  85 W21G26    30.23F WCI  15
SARATOGA       FAIR      32  27  80 W14G20    30.27R WCI  22
LARAMIE        FAIR      28  21  75 CALM      30.14S
CHEYENNE       FAIR      36  25  64 NW16G24   30.11R WCI  26
TORRINGTON     CLOUDY    39  23  52 NW9       30.11R WCI  33
PINE BLUFFS    FAIR      34  28  80 N14       30.13R WCI  24

$$


USA.gov is the U.S. government's official web portal to all federal, state and local government web resources and services.